Weather in Kudimkar

Russia / Perm Krai     59°00′52″N   54°39′51″E
temp.,
°C
wind,
m/s
gust,
m/s
humid.,
%
clouds,
%
prec.,
mm/h
press.,
hPa
HPBL,
m
28 september, tue
tue2823:00+2ene411785 0.0 1029381
02:000ne39885 0.0 1030219
05:00−1ne3892100 0.0 1031177
08:00−1ne279139 0.0 1031185
11:00+5ene3665100 0.0 1030624
14:00+7nne3455100 0.0 10291084
17:00+7nne3458100 0.0 10291033
20:00+3n237863 0.0 102966
29 september, wed
wed2923:00+1n22895 0.0 103022
02:00−1nnw22935 0.0 103028
05:00−1nnw22955 0.0 103044
08:00−1n23945 0.0 103174
11:00+5n23675 0.0 1030497
14:00+8n235644 0.0 10301145
17:00+7n2463100 0.0 1030210
20:00+4nnw2579100 0.0 1030125
30 september, thu
thu3023:00+4nw2396100 0.0 103082
02:00+4wnw2396100 0.0 102994
05:00+4w2493100 0.0 1029146
08:00+4w2695100 0.0 1028216
11:00+6wnw3683100 0.0 1027439
14:00+7wsw3681100 0.2 1026479
17:00+7wnw3885100 0.2 1025558
20:00+7nw3893100 0.0 1025406
1 october, fri
fri123:00+6nnw3892100 0.0 1026496
02:00+6n3685100 0.0 1026504
05:00+4nw259393 0.0 1027104
08:00+5nw2692100 0.0 1027253
11:00+6nnw2488100 0.0 1027315
14:00+8nnw2376100 0.0 1027700
17:00+8nnw2478100 0.0 1027575
20:00+7nw2488100 0.0 1028121
2 october, sat
sat223:00+6nw2391100 0.0 102897
02:00+6nw2392100 0.0 102892
05:00+6nw2391100 0.0 1029107
08:00+6nw1392100 0.0 102998
11:00+9nw238268 0.0 1030521
14:00+11wnw236693 0.0 10291049
17:00+11wnw236174 0.0 1029377
20:00+8w2276100 0.0 103034